Tracking 35331 objects as of 15-Sep-2026
HD Live streaming from Space Station
objects crossing your sky now

COSMOS 1921 DEB


COSMOS 1921 DEB is no longer on orbit


NORAD ID: 18920
Int'l Code: 1988-011H
Launch date: February 19, 1988
Source: Commonwealth of Independent States (former USSR) (CIS)
Launch site: TYURATAM MISSILE AND SPACE COMPLEX (TTMTR)
Decay date: 1988-06-05

Note: This is SATELLITE DEBRIS
Your satellite tracking list
Your tracking list is empty




NASA's NSSDC Master Catalog

Two Line Element Set (TLE):
1 18920U 88011  H 88156.99375933  .12283489 +17000-4 +18718-2 0  9990
2 18920 069.9775 015.7208 0011683 024.5537 335.2963 16.33727739016638
Source of the keplerian elements: AFSPC